Dothan, AL

11:00 PM CDT on June 25, 2017 (GMT -0500)
Dothan Regional

Weather History for KDHN - January, 2013

Change the Weather History Date:

Wednesday, January 2, 2013

  Actual Average Record
Temperature  
Mean Temperature 57 °F 49 °F  
Max Temperature 66 °F 60 °F 79 °F (1966)
Min Temperature 48 °F 38 °F 21 °F (2001)
Degree Days  
Heating Degree Days 8 16  
Month to date heating degree days 10 32  
Since 1 July heating degree days 649 745  
Growing Degree Days 6 (Base 50)    
Moisture  
Dew Point 51 °F    
Average Humidity 81    
Maximum Humidity 97    
Minimum Humidity 48    
Precipitation  
Precipitation T in 0.15 in 3.81 in (2017)
Month to date precipitation T 0.31  
Year to date precipitation T 0.31  
Sea Level Pressure  
Sea Level Pressure 30.07 in    
Wind  
Wind Speed 9 mph (NNW)    
Max Wind Speed 13 mph    
Max Gust Speed 21 mph    
Visibility 10 miles    
Events Rain    
T = Trace of Precipitation, MM = Missing Value Source: NWS Daily Summary

Daily Weather History Graph

Daily Weather History Graph

Search for Another Location

Airport or City:

Trip Planner

Search our weather history database for the weather conditions in past years. The results will help you decide how hot, cold, wet, or windy it might be!

Date:

Astronomy

Jan. 02, 2013 Rise Set
Actual Time 6:41 AM CST 4:51 PM CST
Civil Twilight 6:14 AM CST 5:17 PM CST
Nautical Twilight 5:44 AM CST 5:47 PM CST
Astronomical Twilight 5:14 AM CST 6:17 PM CST
Moon 10:00 PM CST (1/2) 9:43 AM CST (1/2)
Length of Visible Light 11h 03m
Length of Day
10h 10m
Waning Gibbous, 75% of the Moon is Illuminated
Jan 2
Waning Gibbous
Jan 4
Last Quarter
Jan 11
New
Jan 18
First Quarter
Jan 26
Full

Hourly Weather History & Observations

Time (CST) Temp. Dew Point Humidity Pressure Visibility Wind Dir Wind Speed Gust Speed Precip Events Conditions
12:13 AM 64.4 °F 62.6 °F 94% 29.99 in 2.5 mi West 11.5 mph 18.4 mph 0.00 in Rain Heavy Rain
12:23 AM 64.4 °F 62.6 °F 94% 29.99 in 3.0 mi West 8.1 mph - N/A Rain Heavy Rain
12:46 AM 64.4 °F 62.6 °F 94% 29.99 in 9.0 mi West 5.8 mph - N/A Rain Light Rain
12:51 AM 64.4 °F 62.6 °F 94% 29.99 in 10.0 mi West 5.8 mph - N/A   Overcast
12:53 AM 64.0 °F 63.0 °F 96% 29.98 in 10.0 mi West 5.8 mph - N/A   Overcast
1:05 AM 64.4 °F 62.6 °F 94% 29.99 in 10.0 mi WNW 8.1 mph - N/A   Overcast
1:53 AM 59.0 °F 57.0 °F 93% 29.99 in 10.0 mi NW 11.5 mph - N/A   Overcast
2:18 AM 57.2 °F 55.4 °F 94% 30.00 in 10.0 mi NNW 11.5 mph - N/A   Overcast
2:37 AM 57.2 °F 55.4 °F 94% 30.01 in 10.0 mi NNW 12.7 mph - N/A   Overcast
2:53 AM 55.9 °F 55.0 °F 97% 30.01 in 10.0 mi NNW 9.2 mph - N/A   Overcast
3:53 AM 55.0 °F 53.1 °F 93% 30.02 in 10.0 mi NNW 10.4 mph - N/A   Overcast
4:53 AM 54.0 °F 52.0 °F 93% 30.03 in 10.0 mi North 12.7 mph - N/A   Overcast
5:36 AM 53.6 °F 51.8 °F 94% 30.05 in 10.0 mi North 10.4 mph 20.7 mph N/A   Overcast
5:53 AM 53.1 °F 51.1 °F 93% 30.05 in 10.0 mi North 10.4 mph - N/A   Overcast
6:03 AM 53.6 °F 51.8 °F 94% 30.06 in 10.0 mi NNW 11.5 mph - N/A   Overcast
6:43 AM 53.6 °F 48.2 °F 82% 30.07 in 10.0 mi North 11.5 mph - N/A   Overcast
6:53 AM 52.0 °F 50.0 °F 93% 30.06 in 10.0 mi North 9.2 mph - N/A   Overcast
7:31 AM 53.6 °F 48.2 °F 82% 30.08 in 10.0 mi North 6.9 mph - N/A   Overcast
7:53 AM 53.1 °F 50.0 °F 89% 30.10 in 10.0 mi North 9.2 mph - N/A   Overcast
8:00 AM 53.6 °F 50.0 °F 88% 30.10 in 10.0 mi North 5.8 mph - N/A   Overcast
9:53 AM 55.0 °F 48.9 °F 80% 30.12 in 10.0 mi North 10.4 mph - N/A   Overcast
10:53 AM 57.0 °F 48.0 °F 72% 30.13 in 10.0 mi North 6.9 mph - N/A   Overcast
11:53 AM 60.1 °F 48.0 °F 64% 30.09 in 10.0 mi NW 4.6 mph - N/A   Mostly Cloudy
12:53 PM 63.0 °F 46.0 °F 54% 30.06 in 10.0 mi North 6.9 mph - N/A   Clear
1:53 PM 64.0 °F 45.0 °F 50% 30.05 in 10.0 mi NE 6.9 mph - N/A   Partly Cloudy
2:53 PM 64.9 °F 45.0 °F 48% 30.06 in 10.0 mi Calm Calm - N/A   Mostly Cloudy
3:53 PM 62.1 °F 46.0 °F 56% 30.07 in 10.0 mi NNW 10.4 mph - N/A   Overcast
4:53 PM 59.0 °F 46.0 °F 62% 30.08 in 10.0 mi North 4.6 mph - N/A   Overcast
5:53 PM 57.0 °F 46.0 °F 67% 30.11 in 10.0 mi NNW 9.2 mph - N/A   Overcast
6:53 PM 54.0 °F 45.0 °F 72% 30.16 in 10.0 mi NNW 12.7 mph - N/A   Overcast
7:53 PM 52.0 °F 44.1 °F 74% 30.16 in 10.0 mi NNW 11.5 mph - 0.00 in   Overcast
8:53 PM 51.1 °F 43.0 °F 74% 30.15 in 10.0 mi North 9.2 mph - N/A   Overcast
9:53 PM 50.0 °F 43.0 °F 77% 30.16 in 10.0 mi North 9.2 mph - N/A   Overcast
10:53 PM 48.9 °F 42.1 °F 77% 30.17 in 10.0 mi North 9.2 mph - N/A   Overcast
11:53 PM 48.0 °F 42.1 °F 80% 30.17 in 10.0 mi North 5.8 mph - N/A   Overcast